Simultaneous Nadir Overpasses (SNOs) Predictions

Prediction of SNOs between METOP-A and TERRA Satellite Orbit:

Table of predicted SNOs for the next 14.0 days since TLE Epoch: 6/12/2021
Index Date (METOP-A) Time (METOP-A) Lat,Lon (METOP-A) SZA (METOP-A ) Date (TERRA) Time (TERRA) Lat,Lon (TERRA) SZA (TERRA ) Distance(km) Time Diff (sec)
1 06/13/2021 04:21:35 81.30, 160.89 60.91 06/13/2021 04:22:19 81.32, 160.76 60.92 2.76 44
2 06/13/2021 05:12:16 -81.31, -31.88 119.11 06/13/2021 05:11:46 -81.31, -31.69 119.10 3.31 30
3 06/15/2021 23:55:57 81.31,-132.87 60.75 06/15/2021 23:56:32 81.32,-132.85 60.77 0.97 35
4 06/16/2021 00:46:37 -81.30, 34.75 119.23 06/16/2021 00:45:59 -81.31, 34.73 119.24 1.80 38
5 06/18/2021 19:30:19 81.31, -66.65 60.64 06/18/2021 19:30:45 81.31, -66.49 60.67 2.70 26
6 06/18/2021 20:20:59 -81.30, 100.99 119.34 06/18/2021 20:20:12 -81.31, 101.12 119.34 2.49 47
7 06/21/2021 15:04:39 81.30, -0.06 60.62 06/21/2021 15:04:57 81.30, -0.17 60.61 1.82 18
8 06/21/2021 15:55:19 -81.29, 167.59 119.36 06/21/2021 15:54:24 -81.30, 167.47 119.39 2.57 55
9 06/24/2021 10:39:01 81.31, 66.13 60.61 06/24/2021 10:39:10 81.30, 66.12 60.61 1.33 9



Historial Predications of SNOs between METOP-A and TERRA
